Weather History for Pittsburgh, PA

Change the Weather History Date:

Thursday, April 11, 2013

  Actual Average Record
Temperature  
Mean Temperature 65 °F 50 °F  
Max Temperature 74 °F 60 °F 86 °F (1930)
Min Temperature 56 °F 39 °F 21 °F (1960)
Degree Days  
Heating Degree Days 0 16  
Month to date heating degree days 170 193  
Since 1 July heating degree days 5176 5238  
Cooling Degree Days 0 0  
Month to date cooling degree days 8 0  
Year to date cooling degree days 8 1  
Growing Degree Days 14 (Base 50)    
Moisture  
Dew Point 55 °F    
Average Humidity 71    
Maximum Humidity 93    
Minimum Humidity 49    
Precipitation  
Precipitation 0.01 in 0.10 in 1.46 in (1933)
Month to date precipitation 0.89 1.13  
Year to date precipitation 7.63 9.17  
Snow  
Snow 0.00 in 0.10 in 1.00 in (1942)
Month to date snowfall T 0.9  
Since 1 July snowfall 57.4 40.8  
Snow Depth 0.00 in    
Sea Level Pressure  
Sea Level Pressure 29.78 in    
Wind  
Wind Speed 6 mph (South)    
Max Wind Speed 15 mph    
Max Gust Speed 21 mph    
Visibility 8 miles    
Events Rain    
T = Trace of Precipitation, MM = Missing Value Source: NWS Daily Summary

Daily Weather History Graph

Daily Weather History Graph

Search for Another Location

Airport:

Trip Planner

Search our weather history database for the weather conditions in past years. The results will help you decide how hot, cold, wet, or windy it might be!

Date:

Astronomy

Apr. 11, 2013 Rise Set
Actual Time 6:48 AM EDT 7:56 PM EDT
Civil Twilight 6:20 AM EDT 8:24 PM EDT
Nautical Twilight 5:46 AM EDT 8:57 PM EDT
Astronomical Twilight 5:11 AM EDT 9:32 PM EDT
Moon 7:18 AM EDT (4/11) 9:29 PM EDT (4/11)
Length of Visible Light 14h 03m
Length of Day
13h 07m
New Moon, 2% of the Moon is Illuminated
Apr 11
New Moon
Apr 18
First Quarter
Apr 25
Full
May 2
Last Quarter
May 9
New

Hourly Weather History & Observations

Time (EDT) Temp. Dew Point Humidity Pressure Visibility Wind Dir Wind Speed Gust Speed Precip Events Conditions
12:51 AM 60.1 °F 57.0 °F 90% 29.88 in 10.0 mi SW 3.5 mph - N/A   Overcast
1:51 AM 60.1 °F 57.0 °F 90% 29.90 in 7.0 mi West 4.6 mph - N/A   Overcast
2:51 AM 59.0 °F 57.0 °F 93% 29.88 in 7.0 mi NNW 4.6 mph - 0.01 in Rain Light Rain
3:51 AM 57.9 °F 57.0 °F 97% 29.85 in 3.0 mi SSE 4.6 mph - 0.00 in   Overcast
4:51 AM 57.0 °F 55.0 °F 93% 29.83 in 4.0 mi SSE 3.5 mph - N/A   Mostly Cloudy
5:51 AM 57.0 °F 55.0 °F 93% 29.82 in 5.0 mi Calm Calm - N/A   Scattered Clouds
6:51 AM 55.9 °F 54.0 °F 93% 29.81 in 5.0 mi SE 3.5 mph - N/A   Overcast
7:51 AM 57.9 °F 55.0 °F 90% 29.84 in 7.0 mi South 5.8 mph - N/A   Overcast
8:51 AM 61.0 °F 55.9 °F 83% 29.84 in 10.0 mi SSE 3.5 mph - N/A   Overcast
9:51 AM 64.0 °F 57.0 °F 78% 29.83 in 10.0 mi SSE 3.5 mph - N/A   Overcast
10:51 AM 68.0 °F 55.9 °F 65% 29.84 in 10.0 mi SSW 4.6 mph - N/A   Overcast
11:51 AM 69.1 °F 55.0 °F 61% 29.84 in 10.0 mi West 11.5 mph 17.3 mph N/A   Overcast
12:51 PM 71.1 °F 57.0 °F 61% 29.82 in 10.0 mi WNW 10.4 mph - N/A   Overcast
1:51 PM 71.1 °F 55.0 °F 57% 29.81 in 10.0 mi West 3.5 mph - N/A   Overcast
2:51 PM 72.0 °F 55.0 °F 55% 29.77 in 10.0 mi South 6.9 mph - N/A   Overcast
3:51 PM 73.0 °F 54.0 °F 51% 29.76 in 10.0 mi WSW 6.9 mph - N/A   Overcast
4:51 PM 73.0 °F 54.0 °F 51% 29.73 in 10.0 mi West 3.5 mph - N/A   Overcast
5:51 PM 73.0 °F 55.0 °F 53% 29.72 in 10.0 mi SSE 3.5 mph - N/A   Overcast
6:51 PM 69.1 °F 57.0 °F 65% 29.70 in 10.0 mi North 6.9 mph - N/A   Overcast
7:51 PM 66.9 °F 57.0 °F 70% 29.69 in 10.0 mi North 11.5 mph - N/A   Overcast
8:51 PM 63.0 °F 53.1 °F 70% 29.68 in 10.0 mi ENE 9.2 mph - N/A   Overcast
9:51 PM 60.1 °F 51.1 °F 72% 29.65 in 10.0 mi ENE 8.1 mph - N/A   Overcast
10:51 PM 57.0 °F 48.9 °F 74% 29.62 in 10.0 mi ENE 9.2 mph - N/A   Overcast
11:51 PM 55.9 °F 48.9 °F 77% 29.61 in 7.0 mi East 11.5 mph - N/A   Overcast